Location: Bremen
(53.0793°N, 8.8017°E)
Time: 22:34:23
(UTC+02:00)

Vanguard 2 Rocket - Pass Details

Date: 14 April 2024
Orbit: 556 x 3304 km, 32.9° (Epoch: 20 May)

Event Time Altitude Azimuth Distance (km) Brightness Sun altitude
Rises 00:21:43 0° 220° (SW) 7,058 11.1 -26.0°
Reaches altitude 10° 00:27:13 10° 211° (SSW) 6,194 10.7 -26.2°
Enters shadow 00:29:19 14° 207° (SSW) 5,887 10.6 -26.3°
Maximum altitude 00:42:58 31° 160° (SSE) 4,586 - -26.8°
Exits shadow 00:47:55 27° 137° (SE) 4,600 10.0 -26.9°
Drops below altitude 10° 00:56:34 10° 107° (ESE) 5,374 10.6 -27.1°
Sets 01:00:51 0° 98° (E) 6,038 11.0 -27.2°
